Friday Harbor, WA

5:54 AM PDT on August 27, 2016 (GMT -0700)
Friday Harbor

Weather History for KFHR - August, 2014

Change the Weather History Date:

Friday, August 8, 2014

  Actual Average Record
Temperature  
Mean Temperature 60 °F -  
Max Temperature 72 °F 71 °F 81 °F (2001)
Min Temperature 48 °F 48 °F 45 °F (2000)
Degree Days  
Heating Degree Days 6    
Growing Degree Days 10 (Base 50)    
Moisture  
Dew Point 52 °F    
Average Humidity 78    
Maximum Humidity 100    
Minimum Humidity 53    
Precipitation  
Precipitation 0.00 in - - ()
Sea Level Pressure  
Sea Level Pressure 30.09 in    
Wind  
Wind Speed 4 mph (SSE)    
Max Wind Speed 13 mph    
Max Gust Speed 16 mph    
Visibility 10 miles    
Events      
Averages and records for this station are not official NWS values.
T = Trace of Precipitation, MM = Missing Value Source: NWS Daily Summary

Daily Weather History Graph

Daily Weather History Graph

Search for Another Location

Airport or City:

Trip Planner

Search our weather history database for the weather conditions in past years. The results will help you decide how hot, cold, wet, or windy it might be!

Date:

Astronomy

Aug. 08, 2014 Rise Set
Actual Time 5:56 AM PDT 8:38 PM PDT
Civil Twilight 5:20 AM PDT 9:13 PM PDT
Nautical Twilight 4:34 AM PDT 9:59 PM PDT
Astronomical Twilight 3:40 AM PDT 10:52 PM PDT
Moon 6:55 PM PDT (8/8) 3:31 AM PDT (8/8)
Length of Visible Light 15h 53m
Length of Day
14h 42m
Waxing Gibbous, 94% of the Moon is Illuminated
Aug 8
Waxing Gibbous
Aug 10
Full
Aug 17
Last Quarter
Aug 25
New
Sep 2
First Quarter

Hourly Weather History & Observations

Time (PDT) Temp. Dew Point Humidity Pressure Visibility Wind Dir Wind Speed Gust Speed Precip Events Conditions
12:53 AM 55.0 °F 51.1 °F 86% 30.04 in 10.0 mi WSW 6.9 mph - N/A   Clear
1:53 AM 55.0 °F 51.1 °F 86% 30.04 in 10.0 mi Calm Calm - N/A   Clear
2:53 AM 52.0 °F 48.9 °F 89% 30.05 in 10.0 mi Calm Calm - N/A   Clear
3:53 AM 48.9 °F 48.0 °F 97% 30.06 in 8.0 mi Calm Calm - N/A   Clear
4:53 AM 50.0 °F 48.0 °F 93% 30.06 in 8.0 mi Calm Calm - N/A   Clear
5:53 AM 48.9 °F 48.0 °F 97% 30.07 in 7.0 mi Calm Calm - N/A   Clear
6:53 AM 51.1 °F 51.1 °F 100% 30.08 in 6.0 mi Calm Calm - N/A   Clear
7:53 AM 57.9 °F 53.1 °F 84% 30.09 in 10.0 mi Calm Calm - N/A   Clear
8:53 AM 61.0 °F 53.1 °F 75% 30.10 in 10.0 mi SE 4.6 mph - N/A   Clear
9:53 AM 63.0 °F 53.1 °F 70% 30.12 in 10.0 mi ESE 5.8 mph - N/A   Clear
10:53 AM 62.1 °F 53.1 °F 72% 30.13 in 10.0 mi ESE 8.1 mph - N/A   Clear
11:53 AM 64.0 °F 54.0 °F 70% 30.13 in 10.0 mi East 8.1 mph - N/A   Clear
12:53 PM 66.0 °F 54.0 °F 65% 30.13 in 10.0 mi ESE 8.1 mph - N/A   Clear
1:53 PM 70.0 °F 54.0 °F 57% 30.13 in 10.0 mi SSW 10.4 mph - N/A   Clear
2:53 PM 71.1 °F 53.1 °F 53% 30.12 in 10.0 mi South 12.7 mph 16.1 mph N/A   Clear
3:53 PM 71.1 °F 54.0 °F 55% 30.12 in 10.0 mi South 8.1 mph - N/A   Clear
4:53 PM 66.0 °F 54.0 °F 65% 30.11 in 10.0 mi SW 9.2 mph - N/A   Clear
5:53 PM 64.9 °F 52.0 °F 63% 30.10 in 10.0 mi Variable 4.6 mph - N/A   Clear
6:53 PM 60.1 °F 52.0 °F 75% 30.09 in 10.0 mi East 4.6 mph - N/A   Clear
7:53 PM 61.0 °F 51.1 °F 70% 30.08 in 10.0 mi Calm Calm - N/A   Clear
8:53 PM 55.0 °F 50.0 °F 83% 30.08 in 10.0 mi Calm Calm - N/A   Clear
9:53 PM 54.0 °F 51.1 °F 90% 30.09 in 10.0 mi Calm Calm - N/A   Clear
10:53 PM 52.0 °F 50.0 °F 93% 30.10 in 10.0 mi Calm Calm - N/A   Clear
11:53 PM 53.1 °F 50.0 °F 89% 30.10 in 10.0 mi NNW 3.5 mph - N/A   Clear